Regional Weather Roundup
Issued by NWS

Home | Current Version | Previous Version | Text Only | Print | Product List | Glossary Off
Versions: 1 2 3 4 5 6 7 8 9 10 11 12 13 14 15 16 17 18 19 20 21 22 23 24 25 26 27 28 29 30 31 32 33 34 35 36 37 38 39 40 41 42 43 44 45 46 47 48 49 50

000
ASUS43 KLMK 220402
RWRKY
KENTUCKY REGIONAL WEATHER ROUNDUP
NATIONAL WEATHER SERVICE LOUISVILLE KY
1200 AM EDT SAT JUL 22 2017

NOTE "FAIR" INDICATES FEW OR NO CLOUDS BELOW 12,000 FEET
WITH NO SIGNIFICANT WEATHER AND/OR OBSTRUCTIONS TO VISIBILITY.

KYZ001>023-026-027-061>063-070>075-220500-
WESTERN AND SOUTH CENTRAL KENTUCKY

CITY           SKY/WX    TMP DP  RH WIND       PRES   REMARKS
PADUCAH        CLEAR     84  75  74 SW5       29.95S HX  92
HENDERSON      CLEAR     80  76  87 S3        29.95S
OWENSBORO      PTCLDY    82  76  81 S5        29.96R
HOPKINSVILLE   CLEAR     83  77  81 S3        29.98S HX  93
BOWLING GREEN  CLEAR     86  76  71 SW5       29.99R HX  96
GLASGOW        NOT AVBL
$$

KYZ024-025-028>034-038-045-046-053-220500-
NORTH CENTRAL KENTUCKY

CITY           SKY/WX    TMP DP  RH WIND       PRES   REMARKS
LOUISVILLE/SDF PTCLDY    87  74  64 S6        29.95F HX  95
LOUISVILLE/LOU CLEAR     85  76  74 S5        29.97S HX  94
FORT KNOX      PTCLDY    80  75  85 CALM      29.97S
$$

KYZ035>037-039>044-047>052-055>060-089>105-220500-
NORTHEAST KENTUCKY

CITY           SKY/WX    TMP DP  RH WIND       PRES   REMARKS
LEXINGTON      CLEAR     80  72  76 SW6       30.00R
COVINGTON      CLOUDY    76  73  91 S5        29.97S
FRANKFORT      CLEAR     81  73  76 SW3       29.98R
$$

KYZ054-064>069-076>088-106>120-220500-
SOUTHEAST KENTUCKY

CITY           SKY/WX    TMP DP  RH WIND       PRES   REMARKS
JACKSON        CLEAR     79  73  82 CALM      30.02F
LONDON         CLEAR     77  72  84 CALM      30.03F
SOMERSET       NOT AVBL
MIDDLESBORO    CLEAR     76  73  89 W3        30.04F
MONTICELLO     CLEAR     73  72  96 W10       30.04S
$$




USA.gov is the U.S. government's official web portal to all federal, state and local government web resources and services.